星链-36244(STARLINK-36244)

导读

STARLINK-36244(NORAD编号68145)是美国SpaceX星链(Starlink)项目旗下的低轨互联网通信卫星,采用Starlink V1.0平台设计,归属美国太空探索技术公司运营制造,于2024年12月8日发射升空。 作为星链星座组成部分,它运行在近地轨道,近地点约355公里、远地点约357公里,轨道倾角43度,轨道周期约91.66分钟,主要为全球提供高速低延迟互联网接入服务,支持偏远地区联网与特定行业通信需求。目前该卫星处于在轨正常运行状态。

Basic Information
目录编号:
68145
目录名称:
STARLINK-36244
国际标识:
2026-049D
轨道中心:
EARTH
卫星名称:
星链-36244
卫星全名:
星链-36244(STARLINK-36244)
卫星状态:
在轨 (已飞行175 天)
发射日期:
2026-03-13 UTC
国别 :
美国 (US)
星等 :
--
Orbit Information
数据来源 国际轨道数据 AOE轨道数据
星历时间 2026-09-04T08:06:57+0800
9小时前
查看轨道信息
2026-09-02T00:00:00+0800
2天前
查看轨道信息
半长轴 6843.672km 6843.615km
偏心率 0.0001556 0.0001332
轨道倾角 97.283° 97.284°
近地点辐角 122.092° 133.012°
升交点赤经 267.205° 264.899°
平近点角 238.047° 287.928°
近地点 464.47km 464.566km
远地点 466.6km 466.39km
周期 93.906分钟 93.905分钟
每日圈数 15.33448 15.334672
Detailed Information
固有亮度:
5
最大亮度:
2.5
卫星平台:
Starlink V1.0
覆盖范围:
全球
运营商:
太空探索技术公司
运营商所在国:
美国
制造商(研发单位):
太空探索技术公司
制造商所在国:
美国
使用方式:
暂无
Satellite Introduction
Starlink 计划是 SpaceX 推出的全球卫星互联网项目,通过发射低轨道卫星,为全球尤其是偏远地区提供高速、低延迟的互联网服务。自 2019 年起,Starlink 已部署数千颗卫星,旨在缩小全球数字鸿沟,推动互联网普及。该项目还为军事、航空等行业提供通信支持,带来广泛经济效益。
2D Orbit Map
3D Orbit Map
Orbit Altitude Analysis Chart
Orbit Inclination Analysis Chart
Orbit Comprehensive Analysis Chart
View Comprehensive Chart
Conjunction Data List
Event ID Objects TCA Miss Dist (km) Collision Risk Probability Collision Risk Index (CRI) Action
CDM_260906-031003-074406-814521
2026-09-06T
03:10:39+0000
1.673 km
极远距离
4.787129E-6 低风险 0.49
CDM_260903-041905-247206-814522
2026-09-03T
04:19:17+0000
1.677 km
极远距离
3.526441E-6 低风险 0.46
CDM_260906-013603-074406-814521
2026-09-06T
01:36:42+0000
2.000 km
极远距离
2.88422E-6 低风险 0.44
CDM_260906-000203-074406-814521
2026-09-06T
00:02:44+0000
2.498 km
极远距离
1.773604E-6 低风险 0.4
CDM_260906-114804-778706-814521
2026-09-06T
11:48:29+0000
2.593 km
极远距离
1.608763E-6 低风险 0.39
CDM_260906-044605-396906-814521
2026-09-06T
04:46:17+0000
2.682 km
极远距离
1.51271E-6 低风险 0.39
CDM_260905-152905-016606-814521
2026-09-05T
15:29:42+0000
2.673 km
极远距离
1.454215E-6 低风险 0.38
CDM_260905-053804-855406-814521
2026-09-05T
05:38:15+0000
2.988 km
极远距离
1.197044E-6 低风险 0.37